Location: 81360 Arifat, France
(43.7204°N, 2.3408°E)
Time: 14:05:49
(UTC+02:00)

Envisat - Pass Details

Date: 06 October 2021
Orbit: 764 x 766 km, 98.2° (Epoch: 20 October)

Event Time Altitude Azimuth Distance (km) Brightness Sun altitude
Rises 05:48:50 0° 29° (NNE) 3,238 6.9 -23.2°
Reaches altitude 10° 05:51:53 10° 48° (NE) 2,306 6.3 -22.7°
Maximum altitude 05:55:19 18° 91° (E) 1,803 5.8 -22.1°
Drops below altitude 10° 05:58:45 10° 134° (SE) 2,295 5.9 -21.5°
Sets 06:01:45 0° 153° (SSE) 3,215 6.4 -21.0°
